Wind_Speed
45 46 50 48 45 44 45 46 47 44 41 41 38 36 30 27 29 19 29 35 31 33 32 30 26 24 25 23 19 19 20 22 23 24 24 24 23 20 18 18 20 21 22 22 25 25 26 26 28
47 45 43 46 47 43 45 48 47 46 45 41 39 43 35 37 29 35 31 28 30 33 35 35 35 33 35 34 30 26 23 24 25 26 25 25 23 20 21 19 21 24 26 28 28 30 31 32 31
51 50 46 44 45 44 49 48 47 46 46 43 46 42 39 43 30 38 36 32 32 36 35 35 37 37 36 36 34 26 23 23 23 24 25 27 24 23 23 24 26 26 28 31 32 34 36 35 38
57 55 52 47 47 52 51 51 49 49 44 38 45 40 40 41 32 41 39 38 37 37 36 36 37 38 37 35 33 28 26 26 27 27 28 29 31 31 31 30 29 30 30 32 34 36 38 38 41
63 61 56 51 54 55 56 54 53 50 46 46 48 46 42 37 35 41 42 42 42 41 39 39 39 38 36 35 34 30 26 27 29 31 32 33 35 37 36 35 34 34 33 34 36 37 39 40 39
67 66 61 58 60 62 61 59 57 54 52 51 51 49 49 41 41 41 38 39 40 41 42 42 41 39 37 33 35 35 34 33 33 37 37 37 37 40 40 41 39 38 37 38 39 39 40 41 40
75 74 68 67 65 66 68 65 62 60 56 54 55 54 54 48 44 47 44 44 46 46 44 44 45 45 45 41 41 43 48 44 45 44 42 42 43 44 43 45 45 44 43 43 43 44 43 43 44
80 78 74 70 71 72 75 73 70 65 64 61 60 57 59 57 50 49 53 50 49 51 53 53 52 48 50 51 53 54 55 53 52 51 50 50 49 49 50 49 49 50 50 50 49 48 49 48 47
89 84 75 78 80 80 80 79 77 73 70 69 68 65 62 61 58 53 63 57 55 56 57 58 58 55 57 60 62 63 61 59 57 57 57 58 58 57 55 56 55 54 55 54 54 56 54 55 54
94 91 86 92 90 88 87 85 85 79 74 74 76 71 69 70 66 63 69 66 62 60 61 62 64 64 65 66 68 68 67 65 65 66 65 63 62 62 64 64 64 65 63 62 62 60 61 62 63
96 90 99 98 98 97 94 91 91 86 78 77 81 78 78 77 72 71 72 70 64 65 65 66 68 69 71 72 72 73 74 71 70 70 69 69 69 71 72 72 71 70 70 70 72 73 71 69 69
93 94 101 101 104 103 99 97 94 92 89 84 88 84 82 82 80 78 75 74 64 48 72 70 75 78 79 79 75 74 77 78 76 73 72 73 76 78 78 77 77 77 78 78 79 79 78 78 77
88 94 99 103 105 105 105 104 103 98 96 93 91 90 86 85 90 88 85 80 76 72 71 81 83 92 87 83 78 77 78 79 81 81 82 83 82 82 82 83 82 83 84 85 85 85 85 84 82
94 96 95 98 100 102 104 107 110 104 104 101 98 95 92 91 94 93 91 86 88 74 65 90 112 111 102 88 85 87 84 85 87 89 89 89 90 91 92 90 90 90 91 93 93 92 90 88 85
89 92 95 94 93 94 102 102 100 102 106 108 105 104 100 101 101 97 91 89 92 70 69 84 105 99 61 81 95 96 94 95 96 95 94 96 95 92 96 94 95 96 95 94 91 89 89 87 87
94 93 87 75 84 87 99 91 92 100 103 103 103 107 107 105 107 101 93 92 86 70 68 94 99 111 113 97 98 110 99 100 103 100 97 98 100 98 99 95 95 93 93 94 91 94 94 92 92
101 90 85 83 83 89 93 82 91 101 101 98 97 99 101 103 103 103 101 100 88 75 75 74 91 101 105 88 94 99 96 98 97 99 96 97 96 94 94 91 93 90 90 89 87 92 95 96 98
100 99 97 95 95 101 100 87 90 94 95 94 94 94 98 94 91 94 96 93 92 84 61 82 81 97 97 105 97 82 86 95 95 96 95 94 94 95 94 94 93 96 100 103 104 106 105 103 106
113 120 115 106 103 106 103 92 94 94 94 91 86 85 88 88 89 92 95 91 93 88 68 70 97 82 59 63 67 76 81 86 90 96 94 94 93 90 87 90 85 88 84 79 81 82 80 82 82
121 114 116 113 112 111 106 97 95 97 94 94 91 86 86 83 78 79 83 82 84 85 75 78 87 87 83 92 89 79 77 81 86 85 81 78 76 77 76 74 71 71 70 70 67 67 69 72 73
125 127 120 116 114 116 111 108 101 98 93 96 92 89 87 82 77 75 77 78 77 78 50 63 80 114 103 84 74 72 73 73 78 71 70 69 68 65 62 60 58 56 56 60 61 63 61 64 66
131 124 122 123 121 120 117 115 107 99 93 96 95 89 86 82 77 74 74 77 77 77 87 96 92 87 85 77 75 72 72 77 67 66 68 66 66 58 54 54 52 53 54 53 53 52 55 56 59
129 127 130 128 127 122 120 120 109 106 97 97 92 85 85 82 78 74 74 72 73 74 73 74 74 74 74 72 71 75 76 67 66 67 66 63 52 44 45 46 49 46 52 46 47 49 49 48 50
126 128 132 133 129 131 118 122 109 107 94 89 92 88 84 82 77 72 71 70 70 74 69 68 74 74 67 70 70 70 66 66 67 66 60 58 45 48 43 43 46 46 44 42 39 41 43 43 42
119 121 123 123 129 126 118 115 107 92 90 83 92 90 86 80 77 72 69 64 61 66 62 64 72 68 67 69 68 65 65 65 64 64 56 56 54 51 49 38 38 35 40 41 41 40 41 44 42
103 110 106 113 117 120 112 118 91 75 77 85 98 96 89 83 77 73 71 66 60 59 57 67 65 64 67 71 69 67 64 58 62 62 59 57 55 60 55 51 47 46 51 48 52 52 47 46 45
92 101 95 98 106 112 117 114 107 93 85 95 88 90 90 86 81 77 75 71 57 53 63 60 57 58 63 65 62 61 60 62 60 62 60 58 58 54 55 57 50 45 57 58 59 60 58 57 60
73 87 91 93 96 108 106 104 95 87 93 92 89 88 90 88 85 83 75 63 53 67 62 62 58 58 60 60 60 60 61 61 58 58 57 55 55 55 55 59 54 49 53 54 58 59 60 60 62
60 67 75 83 89 99 104 92 83 90 102 94 95 90 93 92 91 80 71 64 63 63 64 62 59 55 56 57 57 59 61 59 57 56 58 55 56 53 55 57 57 52 53 55 55 61 63 66 63
52 57 62 70 79 86 93 100 91 86 102 109 106 96 98 91 87 81 77 70 72 66 65 63 60 57 57 57 58 59 56 57 55 57 58 57 54 53 56 57 59 59 60 58 58 57 60 62 65
Wind_Direction
218 219 218 220 222 225 232 232 230 234 236 237 240 240 231 234 228 208 242 230 239 244 248 245 238 250 248 252 251 249 262 276 280 284 292 297 302 308 306 307 303 300 297 299 301 307 311 314 319
218 218 220 221 225 227 230 232 230 232 233 236 233 238 234 239 241 226 251 248 241 247 249 249 252 252 262 268 274 279 286 284 281 284 288 291 291 299 300 305 302 298 297 297 297 301 303 305 310
221 220 219 218 219 221 227 230 231 231 231 232 234 235 235 243 222 245 236 250 249 247 247 248 252 253 258 264 269 275 281 283 284 285 286 285 287 294 294 296 299 299 293 293 294 295 298 303 308
225 224 222 222 221 224 228 231 233 233 232 229 235 233 232 236 225 231 238 240 243 244 244 245 247 248 250 254 259 265 273 280 284 285 284 282 283 287 291 291 288 289 290 288 289 290 293 295 302
229 229 225 227 224 227 230 233 238 236 231 225 231 234 235 231 232 243 240 239 243 247 245 248 250 250 249 251 256 259 267 277 280 277 275 276 281 286 289 289 288 287 286 285 285 288 290 295 299
230 231 231 231 230 232 233 237 243 245 237 232 227 234 234 235 248 253 255 250 248 250 251 252 252 253 253 250 253 257 263 266 270 271 271 275 277 280 284 285 285 284 286 288 289 291 290 293 296
230 232 233 231 237 234 237 238 243 250 243 236 236 235 238 248 248 254 258 258 253 258 260 260 259 259 260 257 255 261 275 269 268 269 271 274 275 279 280 282 282 281 281 283 285 287 288 289 290
234 234 233 233 232 233 234 235 242 245 249 242 240 241 237 251 248 250 255 256 256 257 260 258 259 262 260 260 264 266 270 270 272 270 271 272 274 278 278 275 278 280 282 282 282 282 281 283 284
239 236 233 237 235 235 235 237 240 246 245 250 248 244 246 245 250 247 249 251 256 259 264 267 266 264 264 266 267 269 272 275 274 274 277 277 278 280 280 281 279 277 280 281 283 281 281 281 283
242 240 238 240 238 237 238 238 240 243 243 246 251 249 251 245 245 252 244 251 252 255 259 264 267 268 270 271 272 274 275 276 277 278 279 279 280 281 283 284 283 283 281 280 282 281 281 283 284
242 242 240 241 241 239 240 239 241 242 241 243 247 247 252 252 255 250 251 251 253 259 265 264 266 266 268 269 271 272 275 276 276 277 278 279 281 281 282 284 284 285 286 288 288 287 287 286 285
240 238 238 240 241 243 242 242 242 241 241 242 247 245 248 249 252 252 250 252 253 252 259 267 269 269 268 267 269 270 272 275 277 277 276 277 280 282 283 283 284 285 285 286 288 288 288 288 288
236 238 238 239 239 239 241 242 242 241 243 241 246 246 247 249 250 250 253 254 254 256 265 277 260 267 263 265 267 269 269 271 273 274 275 276 277 279 281 282 283 285 286 285 284 285 286 287 286
239 237 236 238 240 241 242 241 241 243 243 243 244 245 247 248 251 249 252 254 256 258 266 259 260 266 264 259 263 267 266 268 270 273 274 276 278 279 281 282 283 283 284 284 284 284 282 282 283
238 237 239 240 241 241 240 240 246 244 244 244 244 247 246 248 250 250 252 254 256 258 260 253 277 277 259 260 269 269 271 270 272 273 274 276 276 276 277 280 280 282 282 281 280 280 278 278 279
241 241 238 244 246 246 247 239 243 244 243 244 244 246 246 246 251 251 253 254 257 259 263 262 257 254 265 274 276 272 267 270 272 274 275 277 278 278 279 279 280 281 280 280 279 280 280 277 276
240 242 244 245 248 248 248 242 246 244 243 242 243 245 246 245 248 250 250 252 254 254 256 246 260 266 270 263 270 270 270 275 273 275 277 278 280 282 283 282 281 281 278 278 278 277 278 277 278
245 244 240 239 241 242 244 241 244 247 245 243 244 244 244 245 246 249 248 249 250 249 256 262 257 266 267 269 273 273 273 274 273 276 278 278 278 279 279 279 279 275 274 275 276 274 275 275 274
241 241 237 238 239 243 242 240 243 245 247 245 244 245 248 247 246 248 250 249 248 247 235 257 253 267 261 260 272 278 286 280 277 276 280 280 280 278 277 277 279 277 276 276 277 278 276 276 275
240 242 242 241 240 242 243 241 241 244 247 248 246 247 248 249 248 248 251 249 250 247 245 258 249 247 267 268 283 289 283 281 281 283 284 285 285 286 284 282 281 280 275 276 278 277 275 272 273
243 244 243 244 244 245 242 240 238 241 244 248 249 248 248 251 252 251 253 253 249 249 238 257 245 247 267 280 284 286 285 285 285 286 287 289 290 291 291 287 283 282 284 283 282 280 281 273 268
240 242 244 247 245 242 243 241 240 239 240 245 247 248 250 250 251 253 255 258 256 249 239 249 258 260 270 278 281 283 283 283 285 287 292 294 296 298 294 287 286 287 285 287 289 291 287 279 268
240 237 240 241 244 244 240 241 236 237 236 242 246 248 249 250 251 252 254 258 263 263 261 261 267 268 273 278 278 277 277 280 284 290 293 296 299 295 289 284 286 285 283 286 291 292 291 287 280
241 238 235 236 238 241 240 241 237 238 235 242 246 246 248 249 251 252 254 253 257 264 267 269 269 270 273 272 273 275 277 284 288 289 293 297 288 283 280 281 288 287 278 283 289 289 291 290 285
238 239 239 238 235 239 241 242 239 235 236 235 246 246 244 245 247 250 251 252 254 259 264 264 263 269 271 271 276 278 283 287 287 289 295 299 290 297 280 274 278 275 283 282 288 290 294 292 286
235 237 236 238 239 239 242 242 236 233 239 235 238 242 243 243 247 250 251 253 255 260 262 257 265 268 268 271 275 279 283 285 287 291 293 293 291 290 278 268 274 270 282 284 283 285 286 288 291
233 233 233 236 235 236 237 238 236 234 231 238 237 243 246 246 247 250 252 251 257 260 252 260 266 267 268 271 274 278 282 283 290 292 296 298 297 292 279 272 274 274 276 286 289 286 289 291 288
230 230 229 228 227 232 237 234 232 231 236 232 234 236 243 244 245 246 250 255 252 249 257 261 263 266 270 271 274 277 280 284 290 292 294 297 299 294 281 275 273 276 270 284 280 284 285 288 288
231 228 227 226 226 232 234 232 230 231 236 238 237 236 242 244 244 249 252 253 246 251 255 258 264 264 267 271 274 277 279 286 288 290 292 295 297 293 283 274 276 278 279 280 278 283 279 284 287
230 228 226 225 225 229 231 232 225 224 233 237 239 233 234 241 246 249 250 247 244 245 251 256 260 264 267 271 275 277 282 284 288 291 294 293 294 293 285 276 275 275 278 280 280 279 278 279 285
Height
10934 10937 10940 10944 10949 10952 10950 10951 10953 10955 10957 10960 10963 10965 10973 10977 10970 10964 10959 10968 10974 10980 10984 10986 10985 10988 10989 10990 10990 10990 10991 10991 10992 10992 10993 10994 10994 10993 10993 10992 10992 10991 10991 10990 10989 10988 10987 10986 10985
10928 10930 10935 10938 10944 10946 10943 10945 10949 10950 10952 10957 10959 10958 10965 10969 10969 10965 10962 10965 10972 10976 10981 10982 10981 10984 10985 10985 10986 10987 10988 10988 10989 10990 10991 10991 10991 10991 10990 10990 10989 10989 10988 10988 10987 10985 10984 10983 10982
10921 10924 10929 10933 10938 10941 10937 10940 10943 10945 10948 10952 10951 10954 10961 10965 10971 10961 10963 10965 10968 10973 10977 10976 10976 10979 10981 10981 10982 10984 10984 10985 10986 10986 10987 10988 10988 10988 10988 10987 10987 10986 10985 10985 10984 10982 10980 10979 10978
10914 10918 10923 10930 10931 10930 10932 10934 10937 10940 10947 10949 10946 10949 10953 10962 10973 10962 10963 10964 10967 10970 10970 10970 10970 10973 10975 10977 10978 10980 10981 10981 10982 10982 10983 10983 10983 10983 10983 10983 10982 10982 10981 10980 10979 10978 10977 10975 10973
10905 10910 10917 10923 10923 10923 10924 10926 10929 10934 10940 10942 10941 10942 10944 10952 10960 10958 10963 10962 10964 10962 10962 10963 10965 10968 10971 10972 10973 10975 10976 10977 10978 10978 10978 10978 10978 10979 10979 10978 10977 10977 10976 10975 10974 10973 10972 10970 10969
10897 10900 10909 10914 10913 10914 10915 10918 10920 10926 10932 10934 10937 10937 10935 10945 10945 10948 10952 10954 10955 10954 10956 10958 10960 10963 10965 10966 10967 10968 10970 10972 10972 10973 10973 10974 10974 10974 10973 10973 10972 10970 10970 10969 10969 10968 10967 10965 10963
10884 10887 10898 10902 10904 10906 10906 10906 10913 10915 10922 10928 10929 10931 10929 10937 10940 10938 10942 10944 10946 10946 10950 10952 10954 10957 10958 10960 10960 10961 10963 10966 10967 10967 10968 10968 10968 10968 10967 10967 10966 10964 10963 10963 10962 10961 10960 10958 10956
10871 10876 10887 10893 10894 10894 10890 10892 10899 10906 10910 10916 10919 10925 10925 10927 10934 10935 10933 10938 10941 10941 10943 10945 10947 10950 10951 10952 10953 10954 10956 10957 10958 10959 10960 10961 10961 10961 10960 10959 10959 10958 10957 10956 10954 10952 10950 10949 10947
10852 10866 10882 10878 10874 10873 10877 10880 10885 10894 10904 10904 10908 10915 10920 10919 10925 10930 10919 10929 10934 10936 10935 10937 10941 10945 10943 10945 10945 10946 10948 10950 10950 10951 10951 10952 10952 10951 10952 10951 10951 10949 10948 10947 10945 10943 10942 10940 10938
10838 10852 10862 10849 10857 10862 10864 10868 10869 10881 10893 10895 10894 10903 10907 10911 10916 10921 10913 10920 10928 10931 10932 10936 10937 10939 10938 10939 10939 10940 10941 10942 10943 10941 10941 10940 10941 10940 10940 10940 10939 10939 10938 10936 10936 10933 10931 10930 10928
10816 10842 10825 10835 10838 10841 10846 10857 10856 10868 10880 10884 10881 10890 10889 10897 10907 10904 10906 10912 10925 10928 10932 10932 10929 10930 10930 10929 10930 10933 10934 10934 10933 10931 10930 10930 10930 10928 10928 10927 10926 10926 10925 10924 10922 10920 10919 10919 10917
10795 10809 10807 10811 10815 10822 10833 10836 10846 10852 10860 10868 10863 10874 10877 10881 10889 10887 10893 10900 10922 10928 10924 10926 10918 10918 10916 10913 10917 10920 10921 10923 10924 10921 10919 10917 10916 10914 10915 10916 10916 10916 10913 10912 10908 10907 10905 10904 10902
10782 10781 10784 10788 10794 10802 10806 10818 10823 10835 10840 10849 10850 10858 10866 10868 10865 10873 10877 10891 10904 10916 10922 10911 10884 10898 10898 10901 10905 10905 10905 10907 10910 10908 10905 10906 10905 10903 10904 10904 10904 10901 10900 10894 10895 10890 10888 10888 10888
10748 10753 10761 10766 10777 10782 10790 10791 10797 10820 10823 10830 10835 10843 10849 10852 10850 10860 10867 10885 10882 10913 10928 10908 10868 10879 10886 10889 10889 10890 10889 10889 10893 10895 10892 10895 10891 10892 10889 10890 10889 10889 10882 10880 10875 10878 10873 10872 10868
10729 10733 10741 10758 10761 10766 10759 10771 10794 10793 10800 10810 10822 10822 10831 10834 10835 10846 10866 10874 10868 10912 10916 10901 10863 10866 10857 10864 10871 10880 10876 10872 10874 10879 10879 10876 10880 10880 10874 10880 10876 10870 10865 10857 10857 10858 10855 10856 10852
10705 10710 10733 10756 10743 10747 10730 10774 10773 10766 10775 10787 10799 10802 10809 10820 10816 10836 10856 10857 10870 10899 10900 10879 10843 10843 10835 10840 10840 10849 10850 10857 10860 10862 10864 10861 10859 10864 10856 10861 10858 10851 10845 10841 10837 10836 10837 10835 10831
10689 10714 10727 10724 10727 10719 10719 10762 10741 10742 10753 10766 10777 10783 10787 10798 10805 10818 10833 10837 10863 10886 10882 10836 10828 10827 10827 10821 10827 10826 10833 10840 10844 10846 10845 10844 10841 10843 10841 10843 10834 10836 10827 10823 10818 10814 10813 10812 10809
10690 10688 10695 10697 10694 10682 10690 10729 10725 10722 10732 10747 10756 10763 10767 10783 10797 10800 10811 10830 10843 10870 10895 10851 10828 10815 10804 10812 10811 10820 10825 10825 10827 10830 10831 10825 10824 10824 10821 10820 10817 10810 10806 10802 10798 10794 10793 10790 10788
10634 10630 10648 10670 10674 10667 10680 10711 10704 10706 10710 10729 10741 10746 10750 10767 10781 10786 10792 10816 10822 10853 10870 10790 10819 10818 10799 10798 10800 10803 10806 10808 10816 10812 10812 10807 10805 10802 10802 10793 10796 10786 10783 10778 10774 10775 10772 10767 10767
10606 10612 10624 10643 10648 10646 10663 10688 10694 10690 10704 10707 10720 10732 10738 10748 10765 10775 10777 10797 10798 10816 10863 10836 10827 10805 10791 10790 10791 10791 10791 10795 10796 10794 10792 10791 10786 10786 10782 10778 10773 10769 10763 10761 10759 10756 10754 10751 10750
10573 10581 10600 10614 10626 10624 10641 10650 10666 10681 10692 10694 10706 10717 10724 10738 10752 10763 10762 10770 10786 10810 10823 10752 10784 10790 10774 10776 10781 10779 10779 10781 10784 10780 10777 10774 10774 10770 10763 10759 10756 10751 10747 10745 10742 10741 10739 10736 10734
10537 10564 10576 10583 10591 10603 10612 10619 10644 10668 10680 10675 10686 10699 10715 10726 10737 10748 10751 10750 10765 10786 10804 10786 10774 10776 10769 10771 10775 10768 10769 10775 10773 10768 10765 10763 10760 10752 10747 10745 10741 10737 10735 10733 10731 10729 10726 10721 10721
10507 10533 10538 10555 10561 10568 10582 10587 10624 10637 10660 10663 10676 10696 10698 10708 10721 10732 10742 10744 10744 10752 10766 10769 10761 10762 10763 10764 10761 10762 10765 10762 10762 10760 10756 10753 10748 10740 10736 10731 10728 10726 10723 10724 10722 10718 10715 10712 10711
10475 10491 10500 10518 10533 10527 10555 10563 10597 10616 10653 10672 10672 10675 10687 10695 10702 10714 10723 10735 10740 10737 10751 10757 10748 10752 10760 10758 10755 10753 10755 10752 10751 10750 10746 10740 10735 10730 10727 10722 10715 10713 10714 10716 10713 10711 10709 10705 10704
10444 10460 10475 10487 10503 10510 10544 10547 10570 10616 10636 10663 10657 10660 10664 10674 10684 10695 10703 10719 10731 10729 10741 10743 10734 10745 10747 10742 10743 10742 10745 10743 10737 10734 10735 10731 10724 10721 10717 10713 10710 10706 10705 10705 10705 10703 10700 10698 10697
10412 10429 10450 10470 10485 10507 10529 10525 10566 10609 10628 10631 10623 10633 10644 10660 10673 10683 10688 10702 10714 10721 10729 10717 10727 10733 10730 10730 10731 10732 10733 10728 10723 10722 10721 10721 10714 10708 10706 10702 10699 10696 10695 10694 10694 10692 10691 10689 10689
10388 10399 10433 10449 10467 10476 10491 10514 10549 10571 10587 10591 10618 10627 10635 10647 10660 10667 10672 10685 10709 10707 10698 10710 10715 10716 10714 10716 10718 10718 10718 10715 10712 10710 10706 10704 10702 10697 10691 10688 10688 10687 10685 10682 10683 10682 10680 10679 10677
10373 10383 10404 10417 10435 10450 10466 10492 10525 10557 10567 10574 10596 10613 10618 10627 10640 10644 10662 10685 10696 10678 10691 10695 10701 10702 10701 10703 10706 10708 10704 10702 10700 10697 10695 10693 10690 10684 10680 10677 10678 10677 10676 10673 10671 10670 10670 10665 10663
10361 10372 10388 10405 10421 10434 10454 10476 10522 10545 10548 10566 10575 10597 10601 10611 10618 10645 10663 10672 10667 10672 10678 10683 10688 10691 10690 10693 10694 10695 10693 10690 10689 10685 10684 10683 10680 10675 10671 10669 10668 10666 10665 10662 10660 10656 10655 10652 10649
10351 10360 10375 10392 10414 10428 10437 10454 10486 10525 10530 10542 10549 10561 10575 10602 10619 10640 10647 10648 10648 10659 10665 10672 10676 10680 10681 10682 10682 10682 10681 10678 10675 10672 10670 10670 10668 10665 10661 10659 10658 10656 10652 10649 10648 10645 10643 10640 10637